Tracking 28920 objects as of 24-May-2024
HD Live streaming from Space Station
objects crossing your sky now

CP5

Track CP5 now!
10-day predictions
CP5 is classified as:


NORAD ID: 38763
Int'l Code: 2012-048F
Perigee: 482.5 km
Apogee: 650.4 km
Inclination: 64.7 °
Period: 95.8 minutes
Semi major axis: 6937 km
RCS: Unknown
Launch date: September 13, 2012
Source: United States (US)
Launch site: AIR FORCE WESTERN TEST RANGE (AFWTR)

Uplink (MHz):
Downlink (MHz): 437.405
Beacon (MHz): 437.405
Mode: 1200bps AFSK CW
Call sign: CP5
Status: Inactive

Your satellite tracking list
Your tracking list is empty




NASA's NSSDC Master Catalog

Two Line Element Set (TLE):
1 38763U 12048F   24144.89696305  .00017222  00000-0  11123-2 0  9997
2 38763  64.6640  78.3695 0121046  32.3574 328.4891 15.02453360  2467
Source of the keplerian elements: Caltech